Regional Weather Roundup
Issued by NWS Newport/Morehead, NC

Current Version | Previous Version | Text Only | Print | Product List | Glossary On
Versions: 1 2 3 4 5 6 7 8 9 10 11 12 13 14 15 16 17 18 19 20 21 22 23 24 25 26 27 28 29 30 31 32 33 34 35 36 37 38 39 40 41 42 43 44 45 46 47 48 49 50
000 ASUS42 KMHX 230712 RWRMHX WEATHER ROUNDUP FOR EASTERN NORTH CAROLINA NATIONAL WEATHER SERVICE NEWPORT/MOREHEAD CITY NC 300 AM EDT SAT MAY 23 2015 NOTE: "FAIR" INDICATES FEW OR NO CLOUDS BELOW 12,000 FEET WITH NO SIGNIFICANT WEATHER AND/OR OBSTRUCTIONS TO VISIBILITY NCZ015>017-031-032-045>047-102-103-230800- NORTH COAST CITY SKY/WX TMP DP RH WIND PRES REMARKS EDENTON CLEAR 61 54 76 W3 30.27S ELIZABETH CITY CLEAR 57 54 89 SW6 30.26S KITTY HAWK SUNNY 63 56 80 SW5 30.26R MANTEO CLEAR 64 56 77 W6 30.27S $$ NCZ045>047-081-094-103-104-230800- CENTRAL COAST CITY SKY/WX TMP DP RH WIND PRES REMARKS FRISCO CLEAR 49 46 90 W3 30.27S SWANQUARTER N/A 66 N/A N/A SW6 30.24S $$ NCZ095-097-098-100-101-230800- SOUTHERN COAST CITY SKY/WX TMP DP RH WIND PRES REMARKS BEAUFORT CLEAR 56 54 93 CALM 30.28S CEDAR ISLAND N/A 61 N/A N/A S3 30.33S JACKSONVILLE CLEAR 54 52 93 CALM 30.27S PINEY ISLAND SUNNY N/A N/A N/A S6 30.27F WILMINGTON CLEAR 57 55 93 CALM 30.28S $$ NCZ011>013-027>030-043-044-078>080-089-090>093-098-230800- COASTAL PLAIN CITY SKY/WX TMP DP RH WIND PRES REMARKS AHOSKIE CLEAR 49 47 95 CALM 30.28R CLINTON CLEAR 54 53 98 CALM 30.30R ELIZABETHTOWN CLEAR 55 52 90 CALM 30.28S GOLDSBORO CLEAR 53 50 89 CALM 30.27R GREENVILLE CLEAR 54 54 100 CALM 30.29S HAVELOCK CLEAR 55 52 89 CALM 30.29S KENANSVILLE CLEAR 50 49 97 CALM 30.30R KINSTON CLEAR 50 49 97 CALM 30.29S NEW BERN FOG 53 50 89 CALM 30.29S VSB 1 RICHLANDS CLEAR 50 45 81 CALM 30.29S ROCKY MOUNT CLEAR 51 50 96 CALM 30.29R WASHINGTON CLEAR 55 52 90 CALM 30.28S WHITEVILLE CLEAR 55 53 94 CALM 30.27F $$ AMZ130-135-150-152-154-156-158-170-250-252-270-ANZ085-086-088-633-658-670-230800- MARINE OBSERVATIONS STATION/POSITION TIME TEMP WIND PRES WAVE SWELL AIR SEA DIR/SP/G HT/PER HT/PER (UTC) (F) (DEG/KT/KT) (MB) (FT/S) (FT/S) CHESAPEAKE LIGHT 0700 63 220/ 9/ 10 1024.9 64 E VA BEACH 0650 62 60 240/ 10/ 12 1023.8 2/ 7 2/ 7 DUCK 0600 67 64 240/ 7/ 10 1023.7 2 E DUCK 0611 65 N/A 2/ 7 OREGON INLET 0600 67 71 230/ 8/ 10 1024.8 13E OREGON INLT 0600 62 N/A 3/ 9 HATTERAS CG 0600 65 73 200/ 2/ 3 1024.6 DIAMOND BUOY 0650 68 77 320/ 4/ 6 1025.1 3/ 9 3/ 9 CAPE LOOKOUT 0700 67 360/ 1/ 1 1025.0 BEAUFORT LAB 0600 64 73 80/ 1/ 1 1024.5 27 SE WRIGHTSVLE 0600 67 77 50/ 8/ 8 N/A 5 SE WRIGHTSVLE 0608 71 76 60/ 8/ 12 1025.0 225 S CAPE HAT 0650 71 74 50/ 16/ 19 1022.8 6/ 9 3/ 9 41 SE CHARLESTON 0650 72 75 40/ 16/ 17 1023.4 3/ 6 2/ 8 $$

USA.gov is the U.S. government's official web portal to all federal, state and local government web resources and services.